Miscellaneous Local Product
Issued by NWS Hastings, NE

Home | Current Version | Previous Version | Graphics & Text | Print | Product List | Glossary On
Versions: 1 2 3 4 5 6 7 8 9 10 11 12 13 14 15 16 17 18 19 20 21 22 23 24 25 26 27 28 29 30 31 32 33 34 35 36 37 38 39 40 41 42 43 44 45 46 47 48 49 50
000
AXUS43 KGID 260902
MISGRI

GID CWA HOURLY WEATHER ROUNDUP
NATIONAL WEATHER SERVICE HASTINGS NE
300 AM CST MON JAN 26 2015

NOTE: "FAIR" INDICATES FEW OR NO CLOUDS BELOW 12,000 FEET WITH NO
SIGNIFICANT WEATHER AND/OR OBSTRUCTIONS TO VISIBILITY.

...SOUTH CENTRAL NEBRASKA...

CITY           SKY/WX    TMP DP  RH WIND       PRES   REMARKS
GRAND ISLAND   CLEAR     32  27  81 S9        29.98F WCI  24
HASTINGS       CLEAR     31  25  78 S7        29.98F WCI  24
KEARNEY        CLEAR     34  25  69 SW12      29.98F WCI  25
ORD            CLEAR     25  22  88 CALM      29.94F
YORK           PTCLDY    30  27  86 SW8       30.01F WCI  23
AURORA         CLEAR     32  28  82 S10       29.99F WCI  24
LEXINGTON      CLEAR     32  26  78 W9        29.99F WCI  24
HOLDREGE       CLEAR     35  25  69 SW6       30.00S WCI  29
HEBRON         PTCLDY    33  29  82 SW6       30.04F WCI  28

...NEBRASKA PANHANDLE...

CITY           SKY/WX    TMP DP  RH WIND       PRES   REMARKS
CHADRON        MOCLDY    44  30  57 NW16      30.05S
ALLIANCE       MOCLDY    35  30  82 W10       30.06S WCI  27
SCOTTSBLUFF    CLOUDY    37  31  78 NW9       30.12R WCI  30
SIDNEY         MOCLDY    42  30  62 NW14      30.12S

...WESTERN AND NORTH CENTRAL NEBRASKA...

CITY           SKY/WX    TMP DP  RH WIND       PRES   REMARKS
VALENTINE      CLEAR     32  29  88 W8        29.95R WCI  25
AINSWORTH      CLEAR     38  32  78 W10       29.94R WCI  31
ONEILL         CLEAR     35  32  87 SW10      29.90F WCI  27
BROKEN BOW     CLEAR     43  32  65 NW14      29.96S
IMPERIAL       PTCLDY    41  30  65 W13       30.06S
NORTH PLATTE   CLEAR     33  29  85 W9        30.02R WCI  25
MCCOOK         CLEAR     39  30  70 W15       30.04R WCI  31

...EASTERN NEBRASKA...

CITY           SKY/WX    TMP DP  RH WIND       PRES   REMARKS
NORFOLK        CLEAR     36  29  75 SW20      29.90F WCI  25
SO SIOUX CITY  CLEAR     32  29  88 S7        29.93F WCI  26
TEKAMAH        CLEAR     29  27  92 S8        29.97F WCI  21
COLUMBUS       PTCLDY    34  25  69 SW10      29.97F WCI  26
ALBION         PTCLDY    33  28  81 S6        29.96S WCI  28
OMAHA EPPLEY   CLEAR     28  26  92 S9        30.00F WCI  19
OFFUTT AFB     CLEAR     24  22  94 SE3       29.99F
MILLARD        CLEAR     27  26  94 CALM      30.01F FOG
LINCOLN        PTCLDY    31  28  89 S6        30.02F WCI  25
NEBRASKA CITY  CLEAR     25  24  96 SW7       30.04F WCI  17
BEATRICE       PTCLDY    32  29  90 SW9       30.04F WCI  24
FALLS CITY     CLEAR     28  25  88 S5        30.06F WCI  23

...NORTHERN KANSAS...

CITY           SKY/WX    TMP DP  RH WIND       PRES   REMARKS
GOODLAND       PTCLDY    40  30  67 W15       30.11S WCI  32
HILL CITY      CLEAR     35  28  75 W10       30.05S WCI  27
NORTON         SUNNY     34  27  75 SW12      30.03R WCI  25
PHILLIPSBURG   CLEAR     34  27  75 W6        30.02F WCI  29
SMITH CENTER   CLEAR     28  23  80 SE6       30.04F WCI  22
BELOIT         CLOUDY    32  27  80 S7        30.06F WCI  26
HAYS           CLEAR     30  18  59 W3        30.05F
RUSSELL        CLEAR     30  25  81 SW15      30.04F WCI  19
CONCORDIA      MOCLDY    33  30  88 SW9       30.06F WCI  25
SALINA         MOCLDY    28  25  88 S5        30.11F WCI  23
TOPEKA         CLEAR     25  23  92 CALM      30.11S



USA.gov is the U.S. government's official web portal to all federal, state and local government web resources and services.